Regional Weather Roundup
Issued by NWS Green Bay, WI

Home | Current Version | Previous Version | Graphics & Text | Print | Product List | Glossary Off
Versions: 1 2 3 4 5 6 7 8 9 10 11 12 13 14 15 16 17 18 19 20 21 22 23 24 25 26 27 28 29 30 31 32 33 34 35 36 37 38 39 40 41 42 43 44 45 46 47 48 49 50

000
ASUS43 KGRB 292010
RWRGRB

NORTH-CENTRAL AND NORTHEAST WISCONSIN REGIONAL WEATHER ROUNDUP
NATIONAL WEATHER SERVICE GREEN BAY WI
300 PM CDT FRI AUG 29 2014

WIZ005-009-010>012-018-019-292100-
NORTH CENTRAL WISCONSIN

CITY           SKY/WX    TMP DP  RH WIND       PRES   REMARKS
IRONWOOD       NOT AVBL
MANITOWISH WTR CLOUDY    66  65  96 S10G16    29.83F
ARBOR VITAE    CLOUDY    69  65  86 S9        29.84F
EAGLE RIVER    CLOUDY    68  65  89 S9        29.84F
LAND O LAKES   CLOUDY    69  64  82 S7        29.84F
RHINELANDER    CLOUDY    68  64  87 S9        29.86F
PHILLIPS       CLOUDY    73  67  81 SE9       29.82S
ANTIGO         CLOUDY    67  66  97 S9        29.88F FOG
TOMAHAWK       CLOUDY    68  64  88 S6        29.85F FOG
MERRILL        CLOUDY    69  67  93 S3        29.85F FOG
$$

WIZ013-073-292100-
NORTHEAST WISCONSIN

CITY           SKY/WX    TMP DP  RH WIND       PRES   REMARKS
IRON MOUNTAIN  LGT RAIN  67  65  93 S7        29.85F FOG
MARINETTE      PTSUNNY   73  68  83 S10       29.85F
OCONTO         CLOUDY    78  72  82 SE5       29.84F
$$

WIZ017-030-035>037-045-292100-
CENTRAL WISCONSIN

CITY           SKY/WX    TMP DP  RH WIND       PRES   REMARKS
MEDFORD        PTSUNNY   74  68  81 SE7       29.83F
WAUSAU         CLOUDY    75  68  78 S7        29.83F
MOSINEE        PTSUNNY   75  70  83 S10       29.86F
MARSHFIELD     PTSUNNY   80  70  71 S13       29.83F
WISC RAPIDS    MOSUNNY   82  70  66 SW8       29.84F
STEVENS POINT  PTSUNNY   76  68  78 S5        29.85F
WAUPACA        SUNNY     86  72  63 SW6       29.84F HX  91
SHAWANO        CLOUDY    79  70  73 SW3       29.85F
CLINTONVILLE   MOSUNNY   79  68  69 SW7       29.84F
$$

WIZ038-039-048-051-292100-
FOX VALLEY

CITY           SKY/WX    TMP DP  RH WIND       PRES   REMARKS
NWS GREEN BAY  MOSUNNY   83  72  69 SW13G23   29.84F
APPLETON       PTSUNNY   84  70  61 SW12G18   29.86F
OSHKOSH        SUNNY     84  73  69 S13G20    29.85F HX  90
FOND DU LAC    MOSUNNY   83  71  67 S14G21    29.86F
$$

WIZ022-050-052-292100-
EAST CENTRAL WISCONSIN

CITY           SKY/WX    TMP DP  RH WIND       PRES   REMARKS
STURGEON BAY   CLOUDY    72  66  83 S18       29.88F
MANITOWOC      PTSUNNY   72  68  87 S21G26    29.88F
SHEBOYGAN      SUNNY     77  70  79 S13G20    29.88F
$$

LMZ563-521-522-541>543-292100-
LAKESHORE

STATION/POSITION TIME  TEMP    WIND        PRES    VSBY  WAVE
                       AIR SEA DIR/SP/G                  HT/PER
                 (UTC) (F)     (DEG/KT/KT) (MB)    (MI)  (FT/S)
SHEBOYGAN LKSHOR 2000   68 69  170/ 16/ 17 1012.0F
KEWAUNEE LKSHORE 2000   67     170/ 19/ 23 1011.2S
NORTHPORT PIER   2000   68     160/  9/ 17 1011.9F
N MID LAKE BUOY  2000   68 65  200/ 16/ 19 1011.8F         4/ 5
S GREEN BAY BUOY 2000   74     VRB  2/  2  1011.9F
CHAMBERS ISLAND  2000   71     130/  5/ 10 1011.5F
MENOMINEE LKSHOR 2000   70     150/ 11/ 13 1011.7F
$$


USA.gov is the U.S. government's official web portal to all federal, state and local government web resources and services.